| time (UTC) | temp F | wind direction | speed MPH | gust MPH | rain 1hr in | rain 24hr in | rain mn in | humidity % | barometer mb |
| 20260506051004 | 41 | 2 | 4.0 | 10.0 | 0.00 | 0.00 | 0.00 | 87 | 1014.4 |
| 20260506050503 | 41 | 1 | 4.0 | 8.0 | 0.00 | 0.00 | 0.00 | 87 | 1014.3 |
| 20260506045004 | 41 | 360 | 4.0 | 11.0 | 0.00 | 0.00 | 0.00 | 87 | 1014.3 |
| 20260506044504 | 41 | 5 | 4.0 | 12.0 | 0.00 | 0.00 | 0.00 | 87 | 1014.2 |
| 20260506044003 | 41 | 5 | 4.0 | 12.0 | 0.00 | 0.00 | 0.00 | 86 | 1014.3 |
| 20260506043505 | 41 | 1 | 4.0 | 9.0 | 0.00 | 0.00 | 0.00 | 86 | 1014.3 |
| 20260506043217 | 41 | 360 | 4.0 | 11.0 | 0.00 | 0.00 | 0.00 | 86 | 1014.3 |
| 20260506042504 | 41 | 5 | 5.0 | 11.0 | 0.00 | 0.00 | 0.00 | 86 | 1014.3 |
| 20260506042003 | 42 | 4 | 5.0 | 11.0 | 0.00 | 0.00 | 0.00 | 86 | 1014.3 |
| 20260506041716 | 42 | 359 | 5.0 | 11.0 | 0.00 | 0.00 | 0.00 | 86 | 1014.3 |
| 20260506041003 | 42 | 356 | 5.0 | 10.0 | 0.00 | 0.00 | 0.00 | 87 | 1014.3 |
| 20260506040504 | 42 | 2 | 4.0 | 10.0 | 0.00 | 0.00 | 0.00 | 86 | 1014.3 |
| 20260506040004 | 42 | 357 | 3.0 | 9.0 | 0.00 | 0.00 | 0.00 | 86 | 1014.3 |
| 20260506035503 | 42 | 351 | 3.0 | 8.0 | 0.00 | 0.00 | 0.00 | 86 | 1014.3 |
| 20260506035003 | 42 | 353 | 3.0 | 8.0 | 0.00 | 0.00 | 0.00 | 86 | 1014.3 |
| 20260506034503 | 42 | 352 | 3.0 | 8.0 | 0.00 | 0.00 | 0.00 | 86 | 1014.4 |
| 20260506034003 | 42 | 356 | 3.0 | 10.0 | 0.00 | 0.00 | 0.00 | 86 | 1014.4 |
| 20260506033503 | 42 | 358 | 3.0 | 10.0 | 0.00 | 0.00 | 0.00 | 85 | 1014.4 |
| 20260506033005 | 43 | 4 | 3.0 | 8.0 | 0.00 | 0.00 | 0.00 | 85 | 1014.4 |
| 20260506032504 | 43 | 10 | 4.0 | 10.0 | 0.00 | 0.00 | 0.00 | 85 | 1014.5 |
| 20260506032003 | 43 | 6 | 5.0 | 11.0 | 0.00 | 0.00 | 0.00 | 85 | 1014.5 |
| 20260506031503 | 43 | 5 | 5.0 | 11.0 | 0.00 | 0.00 | 0.00 | 84 | 1014.4 |
| 20260506031214 | 43 | 5 | 4.0 | 9.0 | 0.00 | 0.00 | 0.00 | 84 | 1014.4 |
| 20260506030503 | 44 | 4 | 5.0 | 11.0 | 0.00 | 0.00 | 0.00 | 84 | 1014.5 |
| 20260506030004 | 44 | 5 | 5.0 | 12.0 | 0.00 | 0.00 | 0.00 | 84 | 1014.5 |
| 20260506025504 | 44 | 7 | 5.0 | 12.0 | 0.00 | 0.00 | 0.00 | 83 | 1014.5 |
| 20260506025003 | 44 | 8 | 4.0 | 10.0 | 0.00 | 0.00 | 0.00 | 83 | 1014.4 |
| 20260506024504 | 45 | 10 | 5.0 | 13.0 | 0.00 | 0.00 | 0.00 | 83 | 1014.4 |
| 20260506024217 | 45 | 9 | 5.0 | 13.0 | 0.00 | 0.00 | 0.00 | 83 | 1014.5 |
| 20260506023504 | 45 | 9 | 5.0 | 11.0 | 0.00 | 0.00 | 0.00 | 83 | 1014.5 |
| 20260506023004 | 45 | 6 | 6.0 | 11.0 | 0.00 | 0.00 | 0.00 | 83 | 1014.5 |
| 20260506022503 | 45 | 9 | 6.0 | 11.0 | 0.00 | 0.00 | 0.00 | 83 | 1014.5 |
| 20260506022003 | 45 | 12 | 6.0 | 11.0 | 0.00 | 0.00 | 0.00 | 83 | 1014.5 |
| 20260506021503 | 45 | 8 | 5.0 | 11.0 | 0.00 | 0.00 | 0.00 | 83 | 1014.5 |
| 20260506021003 | 45 | 4 | 5.0 | 10.0 | 0.00 | 0.00 | 0.00 | 83 | 1014.6 |
| 20260506020713 | 45 | 2 | 5.0 | 10.0 | 0.00 | 0.00 | 0.00 | 83 | 1014.6 |
| 20260506020004 | 45 | 7 | 5.0 | 13.0 | 0.00 | 0.00 | 0.00 | 83 | 1014.6 |
| 20260506015504 | 45 | 9 | 5.0 | 13.0 | 0.00 | 0.00 | 0.00 | 83 | 1014.7 |
| 20260506015217 | 45 | 11 | 5.0 | 13.0 | 0.00 | 0.00 | 0.00 | 83 | 1014.6 |
| 20260506014715 | 45 | 11 | 5.0 | 11.0 | 0.00 | 0.00 | 0.00 | 83 | 1014.6 |
| 20260506014004 | 46 | 13 | 6.0 | 13.0 | 0.00 | 0.00 | 0.00 | 83 | 1014.6 |
| 20260506013504 | 46 | 9 | 7.0 | 13.0 | 0.00 | 0.00 | 0.00 | 83 | 1014.6 |
| 20260506013004 | 46 | 8 | 7.0 | 12.0 | 0.00 | 0.00 | 0.00 | 83 | 1014.7 |
| 20260506012504 | 46 | 11 | 5.0 | 12.0 | 0.00 | 0.00 | 0.00 | 83 | 1014.7 |
| 20260506012004 | 46 | 9 | 5.0 | 12.0 | 0.00 | 0.00 | 0.00 | 83 | 1014.8 |
| 20260506011504 | 46 | 4 | 6.0 | 11.0 | 0.00 | 0.00 | 0.00 | 82 | 1014.8 |
| 20260506011003 | 46 | 3 | 6.0 | 16.0 | 0.00 | 0.00 | 0.00 | 82 | 1014.7 |
| 20260506010503 | 46 | 5 | 5.0 | 16.0 | 0.00 | 0.00 | 0.00 | 82 | 1014.7 |
| 20260506010003 | 46 | 6 | 6.0 | 14.0 | 0.00 | 0.00 | 0.00 | 82 | 1014.8 |
| 20260506005504 | 46 | 8 | 6.0 | 14.0 | 0.00 | 0.00 | 0.00 | 82 | 1014.8 |
| 20260506005003 | 46 | 13 | 6.0 | 11.0 | 0.00 | 0.00 | 0.00 | 82 | 1014.8 |
| 20260506004504 | 46 | 14 | 6.0 | 13.0 | 0.00 | 0.00 | 0.00 | 82 | 1014.8 |
| 20260506004004 | 46 | 11 | 7.0 | 13.0 | 0.00 | 0.00 | 0.00 | 82 | 1014.9 |
| 20260506003716 | 46 | 9 | 7.0 | 14.0 | 0.00 | 0.00 | 0.00 | 82 | 1014.8 |
| 20260506003003 | 46 | 7 | 6.0 | 14.0 | 0.00 | 0.00 | 0.00 | 81 | 1014.9 |
| 20260506002504 | 46 | 10 | 5.0 | 12.0 | 0.00 | 0.00 | 0.00 | 82 | 1014.9 |
| 20260506002004 | 46 | 10 | 6.0 | 12.0 | 0.00 | 0.00 | 0.00 | 81 | 1014.9 |
| 20260506001504 | 46 | 8 | 6.0 | 12.0 | 0.00 | 0.00 | 0.00 | 81 | 1014.9 |
| 20260506001003 | 46 | 9 | 5.0 | 11.0 | 0.00 | 0.00 | 0.00 | 81 | 1014.9 |
| 20260506000503 | 46 | 12 | 6.0 | 12.0 | 0.00 | 0.00 | 0.00 | 80 | 1014.9 |
| 20260506000003 | 46 | 12 | 6.0 | 12.0 | 0.00 | 0.00 | 0.00 | 80 | 1014.9 |
| 20260505235504 | 46 | 12 | 6.0 | 12.0 | 0.00 | 0.00 | 0.00 | 80 | 1015.0 |
| 20260505235003 | 47 | 13 | 7.0 | 13.0 | 0.00 | 0.00 | 0.00 | 79 | 1014.9 |
| 20260505234504 | 47 | 14 | 7.0 | 13.0 | 0.00 | 0.00 | 0.00 | 79 | 1015.0 |
| 20260505234003 | 47 | 13 | 7.0 | 13.0 | 0.00 | 0.00 | 0.00 | 79 | 1015.1 |
| 20260505233503 | 47 | 14 | 7.0 | 12.0 | 0.00 | 0.00 | 0.00 | 79 | 1015.0 |
| 20260505233004 | 47 | 16 | 7.0 | 13.0 | 0.00 | 0.00 | 0.00 | 78 | 1015.0 |
| 20260505232504 | 47 | 13 | 7.0 | 13.0 | 0.00 | 0.00 | 0.00 | 78 | 1015.1 |
| 20260505232003 | 47 | 13 | 7.0 | 13.0 | 0.00 | 0.00 | 0.00 | 77 | 1015.1 |
| 20260505231503 | 47 | 18 | 7.0 | 14.0 | 0.00 | 0.00 | 0.00 | 77 | 1015.2 |
| 20260505231217 | 47 | 16 | 6.0 | 14.0 | 0.00 | 0.00 | 0.00 | 77 | 1015.2 |
| 20260505230503 | 47 | 10 | 5.0 | 11.0 | 0.00 | 0.00 | 0.00 | 77 | 1015.2 |
| 20260505230218 | 47 | 9 | 5.0 | 11.0 | 0.00 | 0.00 | 0.00 | 77 | 1015.3 |
| 20260505225504 | 47 | 12 | 5.0 | 10.0 | 0.00 | 0.00 | 0.00 | 76 | 1015.2 |
| 20260505225004 | 48 | 19 | 5.0 | 13.0 | 0.00 | 0.00 | 0.00 | 75 | 1015.2 |
| 20260505224503 | 48 | 19 | 7.0 | 14.0 | 0.00 | 0.00 | 0.00 | 75 | 1015.2 |
| 20260505224004 | 48 | 16 | 7.0 | 14.0 | 0.00 | 0.00 | 0.00 | 75 | 1015.2 |
| 20260505223504 | 48 | 13 | 6.0 | 13.0 | 0.00 | 0.00 | 0.00 | 76 | 1015.1 |
| 20260505223004 | 48 | 11 | 5.0 | 13.0 | 0.00 | 0.00 | 0.00 | 76 | 1015.2 |
| 20260505222503 | 48 | 16 | 5.0 | 10.0 | 0.00 | 0.00 | 0.00 | 76 | 1015.2 |
| 20260505222004 | 48 | 23 | 5.0 | 11.0 | 0.00 | 0.00 | 0.00 | 75 | 1015.2 |
| 20260505221504 | 48 | 19 | 6.0 | 16.0 | 0.00 | 0.00 | 0.00 | 75 | 1015.2 |
| 20260505221004 | 48 | 15 | 5.0 | 16.0 | 0.00 | 0.00 | 0.00 | 75 | 1015.2 |
| 20260505220715 | 48 | 13 | 4.0 | 12.0 | 0.00 | 0.00 | 0.00 | 77 | 1015.3 |
| 20260505220003 | 48 | 18 | 4.0 | 10.0 | 0.00 | 0.00 | 0.00 | 76 | 1015.3 |
| 20260505215503 | 48 | 21 | 5.0 | 12.0 | 0.00 | 0.00 | 0.00 | 76 | 1015.3 |
| 20260505215003 | 48 | 21 | 6.0 | 13.0 | 0.00 | 0.00 | 0.00 | 75 | 1015.4 |
| 20260505214503 | 48 | 23 | 5.0 | 13.0 | 0.00 | 0.00 | 0.00 | 75 | 1015.4 |
| 20260505214004 | 49 | 26 | 6.0 | 11.0 | 0.00 | 0.00 | 0.00 | 75 | 1015.3 |
| 20260505213503 | 49 | 23 | 7.0 | 12.0 | 0.00 | 0.00 | 0.00 | 75 | 1015.3 |
| 20260505213004 | 49 | 29 | 7.0 | 13.0 | 0.00 | 0.00 | 0.00 | 75 | 1015.2 |
| 20260505212504 | 49 | 36 | 8.0 | 15.0 | 0.00 | 0.00 | 0.00 | 75 | 1015.2 |
| 20260505212003 | 49 | 35 | 8.0 | 17.0 | 0.00 | 0.00 | 0.00 | 75 | 1015.2 |
| 20260505211504 | 49 | 35 | 7.0 | 17.0 | 0.00 | 0.00 | 0.00 | 75 | 1015.1 |
| 20260505211004 | 49 | 30 | 7.0 | 14.0 | 0.00 | 0.00 | 0.00 | 76 | 1015.1 |
| 20260505210503 | 49 | 29 | 7.0 | 14.0 | 0.00 | 0.00 | 0.00 | 76 | 1015.2 |
| 20260505210004 | 49 | 32 | 7.0 | 14.0 | 0.00 | 0.00 | 0.00 | 76 | 1015.1 |
| 20260505205717 | 50 | 31 | 7.0 | 14.0 | 0.00 | 0.00 | 0.00 | 76 | 1015.1 |
| 20260505205003 | 50 | 29 | 6.0 | 15.0 | 0.00 | 0.00 | 0.00 | 77 | 1015.1 |
| 20260505204503 | 50 | 35 | 7.0 | 17.0 | 0.00 | 0.00 | 0.00 | 77 | 1015.0 |
| 20260505204003 | 50 | 36 | 7.0 | 17.0 | 0.00 | 0.00 | 0.00 | 77 | 1015.0 |
| 20260505203503 | 50 | 33 | 6.0 | 15.0 | 0.00 | 0.00 | 0.00 | 77 | 1015.0 |
| 20260505203217 | 50 | 36 | 7.0 | 15.0 | 0.00 | 0.00 | 0.00 | 77 | 1014.9 |
| 20260505202503 | 50 | 34 | 8.0 | 15.0 | 0.00 | 0.00 | 0.00 | 76 | 1014.9 |
| 20260505202003 | 50 | 32 | 8.0 | 13.0 | 0.00 | 0.00 | 0.00 | 76 | 1014.9 |
| 20260505201504 | 50 | 30 | 7.0 | 13.0 | 0.00 | 0.00 | 0.00 | 76 | 1014.8 |
| 20260505201214 | 50 | 30 | 6.0 | 13.0 | 0.00 | 0.00 | 0.00 | 76 | 1014.8 |
| 20260505200504 | 50 | 37 | 6.0 | 13.0 | 0.00 | 0.00 | 0.00 | 76 | 1014.7 |
| 20260505200003 | 51 | 38 | 6.0 | 13.0 | 0.00 | 0.00 | 0.00 | 76 | 1014.6 |
| 20260505195503 | 51 | 37 | 5.0 | 12.0 | 0.00 | 0.00 | 0.00 | 75 | 1014.6 |
| 20260505195003 | 51 | 38 | 5.0 | 11.0 | 0.00 | 0.00 | 0.00 | 74 | 1014.5 |
| 20260505194503 | 51 | 38 | 6.0 | 11.0 | 0.00 | 0.00 | 0.00 | 74 | 1014.5 |
| 20260505194003 | 51 | 41 | 6.0 | 10.0 | 0.00 | 0.00 | 0.00 | 74 | 1014.5 |
| 20260505193503 | 51 | 36 | 6.0 | 11.0 | 0.00 | 0.00 | 0.00 | 73 | 1014.5 |
| 20260505193218 | 51 | 35 | 6.0 | 11.0 | 0.00 | 0.00 | 0.00 | 72 | 1014.5 |
| 20260505192504 | 51 | 34 | 6.0 | 11.0 | 0.00 | 0.00 | 0.00 | 73 | 1014.4 |
| 20260505192213 | 51 | 34 | 7.0 | 13.0 | 0.00 | 0.00 | 0.00 | 72 | 1014.3 |
| 20260505191503 | 52 | 37 | 6.0 | 13.0 | 0.00 | 0.00 | 0.00 | 74 | 1014.3 |
| 20260505191003 | 52 | 34 | 6.0 | 11.0 | 0.00 | 0.00 | 0.00 | 77 | 1014.2 |
| 20260505190503 | 52 | 42 | 7.0 | 15.0 | 0.00 | 0.00 | 0.00 | 76 | 1014.2 |
| 20260505190215 | 52 | 43 | 8.0 | 15.0 | 0.00 | 0.00 | 0.00 | 76 | 1014.1 |
| 20260505185718 | 52 | 41 | 8.0 | 14.0 | 0.00 | 0.00 | 0.00 | 77 | 1014.1 |
| 20260505185003 | 52 | 34 | 7.0 | 13.0 | 0.00 | 0.00 | 0.00 | 77 | 1013.9 |
| 20260505184503 | 52 | 33 | 7.0 | 17.0 | 0.00 | 0.00 | 0.00 | 77 | 1013.9 |
| 20260505184003 | 53 | 34 | 6.0 | 17.0 | 0.00 | 0.00 | 0.00 | 77 | 1013.9 |
| 20260505183715 | 53 | 34 | 6.0 | 16.0 | 0.00 | 0.00 | 0.00 | 77 | 1013.8 |
| 20260505183003 | 53 | 39 | 7.0 | 16.0 | 0.00 | 0.00 | 0.00 | 76 | 1013.8 |
| 20260505182716 | 53 | 43 | 6.0 | 15.0 | 0.00 | 0.00 | 0.00 | 76 | 1013.8 |
| 20260505182003 | 54 | 43 | 5.0 | 11.0 | 0.00 | 0.00 | 0.00 | 76 | 1013.8 |
| 20260505181503 | 54 | 42 | 5.0 | 13.0 | 0.00 | 0.00 | 0.00 | 76 | 1013.8 |
| 20260505181215 | 54 | 45 | 6.0 | 13.0 | 0.00 | 0.00 | 0.00 | 76 | 1013.8 |
| 20260505180713 | 54 | 49 | 5.0 | 13.0 | 0.00 | 0.00 | 0.00 | 76 | 1013.7 |
| 20260505180003 | 54 | 40 | 7.0 | 15.0 | 0.00 | 0.00 | 0.00 | 76 | 1013.8 |
| 20260505175504 | 54 | 36 | 8.0 | 15.0 | 0.00 | 0.00 | 0.00 | 75 | 1013.8 |
| 20260505175003 | 54 | 36 | 7.0 | 15.0 | 0.00 | 0.00 | 0.00 | 75 | 1013.8 |
| 20260505174504 | 54 | 37 | 7.0 | 14.0 | 0.00 | 0.00 | 0.00 | 76 | 1013.8 |
| 20260505174003 | 54 | 37 | 8.0 | 14.0 | 0.00 | 0.00 | 0.00 | 75 | 1013.7 |
| 20260505173503 | 54 | 35 | 8.0 | 16.0 | 0.00 | 0.00 | 0.00 | 74 | 1013.7 |
| 20260505173003 | 55 | 35 | 9.0 | 17.0 | 0.00 | 0.00 | 0.00 | 74 | 1013.7 |
| 20260505172504 | 55 | 41 | 9.0 | 17.0 | 0.00 | 0.00 | 0.00 | 74 | 1013.7 |
| 20260505172003 | 55 | 41 | 8.0 | 16.0 | 0.00 | 0.00 | 0.00 | 72 | 1013.7 |
| 20260505171503 | 55 | 29 | 8.0 | 13.0 | 0.00 | 0.00 | 0.00 | 73 | 1013.7 |
| 20260505171004 | 55 | 28 | 7.0 | 15.0 | 0.00 | 0.00 | 0.00 | 74 | 1013.6 |
| 20260505170503 | 55 | 36 | 9.0 | 16.0 | 0.00 | 0.00 | 0.00 | 74 | 1013.7 |
| 20260505170216 | 55 | 36 | 9.0 | 18.0 | 0.00 | 0.00 | 0.00 | 73 | 1013.6 |
| 20260505165503 | 56 | 34 | 10.0 | 18.0 | 0.00 | 0.00 | 0.00 | 72 | 1013.6 |
| 20260505165003 | 56 | 32 | 9.0 | 18.0 | 0.00 | 0.00 | 0.00 | 71 | 1013.6 |
| 20260505164503 | 57 | 35 | 10.0 | 18.0 | 0.00 | 0.00 | 0.00 | 70 | 1013.5 |
| 20260505164003 | 58 | 37 | 10.0 | 21.0 | 0.00 | 0.00 | 0.00 | 69 | 1013.4 |
| 20260505163504 | 58 | 32 | 10.0 | 21.0 | 0.00 | 0.00 | 0.00 | 68 | 1013.3 |
| 20260505163004 | 59 | 16 | 7.0 | 15.0 | 0.00 | 0.00 | 0.00 | 66 | 1013.3 |
| 20260505162503 | 59 | 5 | 6.0 | 11.0 | 0.00 | 0.00 | 0.00 | 59 | 1013.2 |
| 20260505161503 | 59 | 16 | 7.0 | 15.0 | 0.00 | 0.00 | 0.00 | 57 | 1013.1 |
| 20260505161003 | 60 | 15 | 7.0 | 14.0 | 0.00 | 0.00 | 0.00 | 58 | 1013.1 |
| 20260505160504 | 60 | 10 | 6.0 | 14.0 | 0.00 | 0.00 | 0.00 | 57 | 1013.1 |
| 20260505160217 | 60 | 8 | 6.0 | 14.0 | 0.00 | 0.00 | 0.00 | 55 | 1013.1 |
| 20260505153004 | 60 | 4 | 5.0 | 11.0 | 0.00 | 0.00 | 0.00 | 56 | 1013.2 |
| 20260505152504 | 60 | 357 | 5.0 | 11.0 | 0.00 | 0.00 | 0.00 | 56 | 1013.1 |
| 20260505152004 | 60 | 358 | 5.0 | 11.0 | 0.00 | 0.00 | 0.00 | 55 | 1013.2 |
| 20260505151503 | 60 | 1 | 5.0 | 12.0 | 0.00 | 0.00 | 0.00 | 56 | 1013.2 |
| 20260505151004 | 61 | 358 | 5.0 | 12.0 | 0.00 | 0.00 | 0.00 | 54 | 1013.2 |
| 20260505150715 | 61 | 1 | 4.0 | 11.0 | 0.00 | 0.00 | 0.00 | 56 | 1013.2 |
| 20260505130214 | 59 | 10 | 4.0 | 9.0 | 0.00 | 0.00 | 0.00 | 59 | 1013.4 |
| 20260505125004 | 59 | 8 | 5.0 | 10.0 | 0.00 | 0.00 | 0.00 | 60 | 1013.4 |
| 20260505124504 | 60 | 16 | 5.0 | 10.0 | 0.00 | 0.00 | 0.00 | 60 | 1013.4 |
| 20260505124004 | 60 | 19 | 5.0 | 10.0 | 0.00 | 0.00 | 0.00 | 61 | 1013.4 |
| 20260505123714 | 60 | 2 | 5.0 | 10.0 | 0.00 | 0.00 | 0.00 | 60 | 1013.4 |
| 20260505123003 | 60 | 2 | 5.0 | 10.0 | 0.00 | 0.00 | 0.00 | 60 | 1013.4 |
| 20260505122503 | 60 | 9 | 5.0 | 11.0 | 0.00 | 0.00 | 0.00 | 60 | 1013.3 |
| 20260505122004 | 60 | 6 | 5.0 | 11.0 | 0.00 | 0.00 | 0.00 | 59 | 1013.3 |
| 20260505121504 | 60 | 12 | 4.0 | 9.0 | 0.00 | 0.00 | 0.00 | 62 | 1013.3 |
| 20260505121004 | 60 | 21 | 4.0 | 9.0 | 0.00 | 0.00 | 0.00 | 60 | 1013.3 |
| 20260505120503 | 60 | 24 | 4.0 | 8.0 | 0.00 | 0.00 | 0.00 | 60 | 1013.3 |
| 20260505120004 | 59 | 354 | 4.0 | 9.0 | 0.00 | 0.00 | 0.00 | 61 | 1013.3 |
| 20260505115504 | 59 | 348 | 4.0 | 9.0 | 0.00 | 0.00 | 0.00 | 61 | 1013.3 |
| 20260505115003 | 60 | 3 | 4.0 | 9.0 | 0.00 | 0.00 | 0.00 | 59 | 1013.3 |
| 20260505114503 | 60 | 16 | 3.0 | 9.0 | 0.00 | 0.00 | 0.00 | 61 | 1013.4 |
| 20260505114216 | 60 | 15 | 3.0 | 8.0 | 0.00 | 0.00 | 0.00 | 60 | 1013.3 |
| 20260505113504 | 60 | 9 | 4.0 | 10.0 | 0.00 | 0.00 | 0.00 | 61 | 1013.4 |
| 20260505113004 | 60 | 6 | 5.0 | 11.0 | 0.00 | 0.00 | 0.00 | 59 | 1013.5 |
| 20260505112503 | 60 | 346 | 4.0 | 11.0 | 0.00 | 0.00 | 0.00 | 60 | 1013.5 |
| 20260505112004 | 60 | 5 | 4.0 | 13.0 | 0.00 | 0.00 | 0.00 | 59 | 1013.5 |
| 20260505111504 | 61 | 14 | 5.0 | 13.0 | 0.00 | 0.00 | 0.00 | 60 | 1013.5 |
| 20260505111003 | 61 | 5 | 4.0 | 10.0 | 0.00 | 0.00 | 0.00 | 60 | 1013.5 |
| 20260505110503 | 61 | 4 | 3.0 | 9.0 | 0.00 | 0.00 | 0.00 | 61 | 1013.4 |
| 20260505102004 | 61 | 4 | 4.0 | 11.0 | 0.00 | 0.00 | 0.00 | 62 | 1013.7 |
| 20260505101503 | 61 | 17 | 5.0 | 11.0 | 0.00 | 0.00 | 0.00 | 62 | 1013.7 |
| 20260505101004 | 60 | 23 | 5.0 | 11.0 | 0.00 | 0.00 | 0.00 | 61 | 1013.7 |
| 20260505100504 | 61 | 1 | 4.0 | 11.0 | 0.00 | 0.00 | 0.00 | 60 | 1013.8 |
| 20260505100003 | 62 | 5 | 5.0 | 11.0 | 0.00 | 0.00 | 0.00 | 59 | 1013.7 |
| 20260505095714 | 62 | 19 | 5.0 | 11.0 | 0.00 | 0.00 | 0.00 | 59 | 1013.7 |
| 20260505095004 | 61 | 32 | 4.0 | 9.0 | 0.00 | 0.00 | 0.00 | 64 | 1013.7 |
| 20260505094503 | 60 | 11 | 4.0 | 10.0 | 0.00 | 0.00 | 0.00 | 63 | 1013.8 |
| 20260505094004 | 60 | 7 | 5.0 | 11.0 | 0.00 | 0.00 | 0.00 | 63 | 1013.8 |
| 20260505093504 | 61 | 16 | 5.0 | 11.0 | 0.00 | 0.00 | 0.00 | 63 | 1013.8 |
| 20260505093214 | 61 | 17 | 5.0 | 9.0 | 0.00 | 0.00 | 0.00 | 63 | 1013.8 |
| 20260505092504 | 62 | 13 | 5.0 | 11.0 | 0.00 | 0.00 | 0.00 | 62 | 1013.8 |
| 20260505092003 | 62 | 9 | 5.0 | 11.0 | 0.00 | 0.00 | 0.00 | 64 | 1013.8 |
| 20260505091503 | 62 | 30 | 5.0 | 10.0 | 0.00 | 0.00 | 0.00 | 64 | 1013.7 |
| 20260505091004 | 61 | 31 | 5.0 | 10.0 | 0.00 | 0.00 | 0.00 | 64 | 1013.7 |
| 20260505090504 | 61 | 3 | 5.0 | 10.0 | 0.00 | 0.00 | 0.00 | 65 | 1013.8 |
| 20260505090005 | 60 | 343 | 5.0 | 10.0 | 0.00 | 0.00 | 0.00 | 66 | 1013.8 |
| 20260505085504 | 60 | 346 | 4.0 | 9.0 | 0.00 | 0.00 | 0.00 | 67 | 1013.8 |
| 20260505085003 | 60 | 1 | 4.0 | 9.0 | 0.00 | 0.00 | 0.00 | 69 | 1013.8 |
| 20260505084503 | 60 | 21 | 5.0 | 11.0 | 0.00 | 0.00 | 0.00 | 69 | 1013.8 |
| 20260505084004 | 59 | 24 | 5.0 | 11.0 | 0.00 | 0.00 | 0.00 | 70 | 1013.9 |
| 20260505083716 | 59 | 16 | 4.0 | 8.0 | 0.00 | 0.00 | 0.00 | 71 | 1013.9 |
| 20260505083004 | 58 | 357 | 3.0 | 8.0 | 0.00 | 0.00 | 0.00 | 74 | 1013.9 |
| 20260505082717 | 58 | 358 | 4.0 | 11.0 | 0.00 | 0.00 | 0.00 | 74 | 1014.0 |
| 20260505082215 | 57 | 13 | 5.0 | 11.0 | 0.00 | 0.00 | 0.00 | 75 | 1014.0 |
| 20260505081504 | 56 | 13 | 4.0 | 10.0 | 0.00 | 0.00 | 0.00 | 78 | 1014.1 |
| 20260505081003 | 54 | 13 | 3.0 | 8.0 | 0.00 | 0.00 | 0.00 | 80 | 1014.0 |
| 20260505080714 | 54 | 16 | 3.0 | 8.0 | 0.00 | 0.00 | 0.00 | 81 | 1014.1 |
| 20260505080004 | 53 | 16 | 4.0 | 8.0 | 0.00 | 0.00 | 0.00 | 83 | 1014.1 |
| 20260505075503 | 52 | 17 | 3.0 | 8.0 | 0.00 | 0.00 | 0.00 | 84 | 1014.0 |
| 20260505075004 | 51 | 11 | 3.0 | 8.0 | 0.00 | 0.00 | 0.00 | 85 | 1014.0 |
| 20260505074503 | 51 | 13 | 4.0 | 8.0 | 0.00 | 0.00 | 0.00 | 84 | 1014.0 |
| 20260505074214 | 50 | 12 | 4.0 | 8.0 | 0.00 | 0.00 | 0.00 | 85 | 1014.0 |
| 20260505073503 | 50 | 5 | 4.0 | 8.0 | 0.00 | 0.00 | 0.00 | 88 | 1014.0 |
| 20260505073003 | 50 | 5 | 4.0 | 8.0 | 0.00 | 0.00 | 0.00 | 89 | 1014.0 |
| 20260505072503 | 49 | 5 | 4.0 | 8.0 | 0.00 | 0.00 | 0.00 | 92 | 1014.1 |
| 20260505072004 | 49 | 4 | 3.0 | 7.0 | 0.00 | 0.00 | 0.00 | 95 | 1014.1 |
| 20260505071714 | 48 | 7 | 3.0 | 7.0 | 0.00 | 0.00 | 0.00 | 96 | 1014.1 |
| 20260505071004 | 48 | 7 | 3.0 | 7.0 | 0.00 | 0.00 | 0.00 | 96 | 1014.2 |
| 20260505070715 | 48 | 7 | 3.0 | 7.0 | 0.00 | 0.00 | 0.00 | 97 | 1014.1 |
| 20260505070218 | 47 | 354 | 3.0 | 10.0 | 0.00 | 0.00 | 0.00 | 97 | 1014.1 |
| 20260505065504 | 47 | 334 | 0.0 | 4.0 | 0.00 | 0.00 | 0.00 | 97 | 1014.2 |
| 20260505065004 | 47 | 0 | 0.0 | 0.0 | 0.00 | 0.00 | 0.00 | 97 | 1014.2 |
| 20260505064503 | 46 | 0 | 0.0 | 0.0 | 0.00 | 0.00 | 0.00 | 97 | 1014.2 |
| 20260505064004 | 46 | 0 | 0.0 | 0.0 | 0.00 | 0.00 | 0.00 | 97 | 1014.3 |
| 20260505063503 | 46 | 0 | 0.0 | 0.0 | 0.00 | 0.00 | 0.00 | 97 | 1014.2 |
| 20260505063004 | 45 | 0 | 0.0 | 0.0 | 0.00 | 0.00 | 0.00 | 97 | 1014.3 |
| 20260505062713 | 45 | 0 | 0.0 | 0.0 | 0.00 | 0.00 | 0.00 | 96 | 1014.3 |
| 20260505062004 | 45 | 232 | 0.0 | 2.0 | 0.00 | 0.00 | 0.00 | 97 | 1014.3 |
| 20260505061503 | 45 | 239 | 1.0 | 3.0 | 0.00 | 0.00 | 0.00 | 97 | 1014.3 |
| 20260505061004 | 44 | 248 | 1.0 | 3.0 | 0.00 | 0.00 | 0.00 | 97 | 1014.3 |
| 20260505060503 | 44 | 258 | 0.0 | 4.0 | 0.00 | 0.00 | 0.00 | 97 | 1014.4 |
| 20260505060004 | 44 | 271 | 1.0 | 6.0 | 0.00 | 0.00 | 0.00 | 97 | 1014.3 |
| 20260505055716 | 44 | 270 | 1.0 | 6.0 | 0.00 | 0.00 | 0.00 | 97 | 1014.4 |
| 20260505055003 | 43 | 271 | 1.0 | 4.0 | 0.00 | 0.00 | 0.00 | 97 | 1014.2 |
| 20260505054503 | 42 | 0 | 0.0 | 0.0 | 0.00 | 0.00 | 0.00 | 96 | 1014.2 |